Погода Большой Улуй

Погода Большой Улуй : погода сейчас, прогноз погоды и архив. Всё, что Вы хотите узнать о погоде Большой Улуй!

Поиск расширенной информации на нашем сайте:

Другие новости

Новости СМИ2

Главная страница сайта

Новости сайта

03.07.2017

Напоминаем, что на нашем специализированном сайте Метеоцентр.Азия вы можете получить высокодетализированные автоматические прогнозы погоды по пунктам России, СНГ и мира в авиационном формате (включающие направление и скорость ветра, видимость, явления погоды, количество и форму облачности, нижнюю и верхнюю границу облачности).

Рекомендуем: Камень натуральный облицовочный купить камни природные природный камень.

Погода Большой Улуй - сегодня

Время (UTC), дата Ветер
(°,м/с) 
Видим.   Явления Облачность Т
(°С)
Тd
(°С)
f(%) Тe
(°С)
Pmin
(гПа)
dP
(гПа)
Po
(мм)
O2
(г/м3)
Тmin Tmax R s Состояние
почвы
12 20.08.17 280 (З) 20000 м    9/9 600 м 
[Sc]
+14.1 +9.1 72 +15  1015.8  0.6  741  282    +15.1       
15 20.08.17 280 (З) н/о    9/9 600 м 
[Sc]
+12.2 +9.2 82 +13  1016.8  0.8  742  284           
18 20.08.17 270 (З) н/о    4/0 верхняя 
[Ci fib]
+10 +8.1 88 +10  1017.5  0.4  742  287           
21 20.08.17 260 (З) н/о    8/6 600 м средняя 
[Sc|Ac trans]
+9.4 +7.9 90 +9  1017.8  0.3  742  288           
00 21.08.17 260 (З) 20000 м    9/9 600 м 
[Sc]
+9.4 +8.3 93 +9  1018.3  0.5  743  288  +9.1        сухая 
03 21.08.17 260 (З) 20000 м    8/8 600 м 
[Sc]
+13.3 +10 80 +15  1018.5  0.6  743  284           
06 21.08.17 300 (СЗ) 20000 м    9/8 600 м средняя 
[Cu med, cong|Ac trans]
+15.8 +10 68 +17  1017.8  -0.5  743  281           
09 21.08.17 320 (СЗ) 20000 м    8/6 600 м средняя 
[Cu med, cong|Ac trans]
+16.5 +9.4 63 +18  1017.2  -0.5  743  280           
12 21.08.17 330 (СЗ) 20000 м  в посл. час ливневой дождь  8/8 600 м кучево-дожд. 
[Cb cap]
+15 +10.2 73 +18  1018.2  0.8  743  282    +17.4  0.0     
15 21.08.17 330 (СЗ) н/о    9/9 600 м 
[Sc]
+13.8 +9.7 76 +15  1018.9  0.6  744  283           
18 21.08.17 220 (ЮЗ) н/о    3/0 верхняя 
[Ci fib]
+10.1 +9.3 95 +11  1020  0.7  744  287           
21 21.08.17 230 (ЮЗ) н/о  дымка  3/3 600 м 
[Sc]
+7.8 +7.5 98 +9  1020.4  0.2  744  290           
00 22.08.17 210 (ЮЗ) 0500 м  туман  ясно 
+7.1 +6.9 99 +7  1021  0.5  745  291  +5.8        сухая 
03 22.08.17 250 (З) 4000 м  дымка{туман}  9/9 600 м кучево-дожд. 
[Cb cap]
+10.6 +10.3 98 +12  1020.8  0.2  745  287           
06 22.08.17 280 (З) 20000 м  {туман}  8/8 600 м 
[Cu med, cong]
+16.5 +8.2 58 +17  1019  -1.3  744  281           
09 22.08.17 250 (З) 20000 м    6/3 600 м верхняя 
[Cu med, cong|Ci fib]
+18.9 +6.6 45 +19  1017  -1.7  743  279           
12 22.08.17 260 (З) 4{11}  4000 м  слаб. ливневой дождь  10/10 600 м кучево-дожд. 
[Cb cap]
+14.4 +10.4 77 +16  1015.4  -1.9  741  282    +19  0.0     
15 22.08.17 230 (ЮЗ) н/о  слаб. ливневой дождь  10/10 600 м кучево-дожд. 
[Cb cap]
+12 +11.6 97 +15  1013.9  -1.7  740  283           
18 22.08.17 240 (ЮЗ) 5{10}  н/о  слаб. дождь{ливн. осадки}  10/10 600 м 
[Ns]
+12.2 +11.9 98 +15  1011.1  -2.7  738  282           
21 22.08.17 360 (С) н/о  в посл. час дождь  10/10 600 м кучево-дожд. 
[Cb cap]
+13 +12.7 98 +18  1011.9  0.9  738  281           
00 23.08.17 320 (СЗ) 20000 м  {дождь}  10/10 600 м кучево-дожд. 
[Cb cap]
+12.4 +11.6 95 +17  1014.6  2.5  740  283  +12    20    влажная 
03 23.08.17 330 (СЗ) 20000 м    8/8 600 м кучево-дожд. 
[Cb cap]
+14.3 +11.6 84 +18  1017.1  2.6  742  282           
06 23.08.17 340 (С) 20000 м  в посл. час ливневой дождь  9/9 600 м кучево-дожд. 
[Cb cap]
+16.4 +10.9 70 +19  1017.7  0.8  743  280           
09 23.08.17 330 (СЗ) 6{11}  20000 м    8/8 600 м кучево-дожд. 
[Cb cap]
+16.9 +7.6 54 +17  1018.6  0.9  744  281           
12 23.08.17 330 (СЗ) 5{11}  20000 м    6/0 верхняя 
[Ci fib]
+15.8 +5.2 49 +16  1021.1  2.3  745  283    +17     
Время (UTC), дата Ветер
(°,м/с) 
Видим.   Явления Облачность Т
(°С)
Тd
(°С)
f(%) Тe
(°С)
Pmin
(гПа)
dP
(гПа)
Po
(мм)
O2
(г/м3)
Тmin Tmax R s Состояние
почвы

Для получения пояснительной информации подведите курсор к названию столбца.

ПОГОДА Большой Улуй - архив

Всё, что Вы хотите узнать о погоде Большой Улуй - удобно и подробно!

Выберите нужную дату (начиная с 1 января 2015* года) и нажмите кнопку "Найти".
Будут отображены архивные сводки погоды по пункту Большой Улуй, начиная с указанной даты.


Отображать данные в формате CSV (для использования в таблицах Excel)


Внимание! Наш архив погоды предназначен исключительно для личного некоммерческого использования в познавательных целях. Если Вам необходимы официальные справки о состоянии погоды (для производственных, юридических, коммерческих и т.п. целей), обращайтесь в органы Росгидромета.

*Примечание: данная дата относится к архиву по метеостанциям СССР (Россия, СНГ, Балтия).
Архив по метеостанциям Зарубежной Европы и Азии (кроме Китая) хранится 10 дней, по другим регионам земного шара (Китай, Африка, Америка, Австралия, Океания) - 1 день.

Большой Улуй - район местоположения метеостанции


Название, широта, долгота, высота метеостанции:
Большой Улуй 56.6°ш. 90.6°д. 231 м над ур. моря [Российская Федерация]

Дополнительная информация

В oтличие oт бoльшинства пoгoдных сайтoв мы публикуем пoдрoбную метеoинфoрмацию в детальнoм прoфессиoнальнoм фoрмате.

Характеристики температуры и влажнoсти вoздуха измеряются на высoте 2 м в тени вдали oт зданий и деревьев.
Скoрoсть ветра измеряется на высoте 10 м (на урoвне рoста челoвека скoрoсть ветра ниже в 1.5-2 раза). Если метеoстанция нахoдится в гoрoде или в лесу, тo скoрoсть ветра занижена на 2-4 м/с пo сравнению с oткрытым местoм. Скoрoсть ветра над акватoриями крупных рек и oзёр, а также на вершинах хoлмoв на 2-5 м/с выше, чем в oбычных услoвиях.
Атмoсфернoе давление в разных тoчках местнoсти мoжет значительнo oтличаться oт давления на метеoстанции, в зависимoсти oт услoвий рельефа (при пoдъёме на 10 м давление пoнижается примернo на 1 мм рт.ст.).